User: anonymous   Login
Location: Montr�al
(45.5000°N, 73.5830°W)
Time: 03:16:35
(UTC-04:00)
Language:

Cosmos 1470 Rocket - Orbit

View from above orbital plane
View from above orbital plane
View from above satellite
View from above satellite

Ground track
Ground track

The orbit data is extracted from the following two-line orbital elements,

1 14148U 83061B   15142.43378172  .00000357  00000-0  40888-4 0  9991
2 14148 082.5198 258.2591 0020444 309.3020 117.6058 14.83010142722672
Epoch (UTC): 22 May 2015 10:24:38
Eccentricity: 0.0020444
inclination: 82.5198°
perigee height: 605 km
apogee height: 634 km
right ascension of ascending node: 258.2591°
argument of perigee: 309.3020°
revolutions per day: 14.83010142
mean anomaly at epoch: 117.6058°
orbit number at epoch: 72267

The dashed part of the orbit path shows where the satellite is in the earth's shadow,  

DLR